This is the latest recevied weather packets stored in our database for station/object NK7I. If no packets are shown the sender has not sent any weather packets the latest 10 day(s).
| Time | Temp. | Humidity | Pressure | Rain* | Wind** | Luminosity | Snow |
|---|---|---|---|---|---|---|---|
| 1778129483 | 13.33° C | 82% | 1009.8 hPa | 0.25 mm | - | 0 W/m² | - |
| 1778129183 | 13.33° C | 82% | 1009.9 hPa | 0.25 mm | - | 0 W/m² | - |
| 1778128882 | 13.89° C | 82% | 1010 hPa | 0.25 mm | - | 0 W/m² | - |
| 1778128583 | 13.89° C | 81% | 1009.8 hPa | 0.25 mm | - | 0 W/m² | - |
| 1778128283 | 13.89° C | 81% | 1009.7 hPa | 0.25 mm | - | 0 W/m² | - |
| 1778127982 | 14.44° C | 77% | 1009.8 hPa | 0.25 mm | - | 0 W/m² | - |
| 1778127683 | 15° C | 76% | 1009.9 hPa | 0.25 mm | - | 0 W/m² | - |
| 1778127382 | 15.56° C | 74% | 1009.4 hPa | 0.25 mm | - | 0 W/m² | - |
| 1778127082 | 15.56° C | 64% | 1009.7 hPa | 0 mm | - | 0 W/m² | - |
| 1778126782 | 16.11° C | 64% | 1009.5 hPa | 0 mm | - | 0 W/m² | - |
| 1778126482 | 16.11° C | 62% | 1009.4 hPa | 0 mm | - | 0 W/m² | - |
| 1778126182 | 16.67° C | 60% | 1009.5 hPa | 0 mm | - | 0 W/m² | - |
| 1778125882 | 17.22° C | 58% | 1009.4 hPa | 0 mm | - | 0 W/m² | - |
| 1778125583 | 17.22° C | 56% | 1009.4 hPa | 0 mm | - | 0 W/m² | - |
| 1778125282 | 17.78° C | 57% | 1009.4 hPa | 0 mm | - | 0 W/m² | - |
| 1778124982 | 18.33° C | 54% | 1009.3 hPa | 0 mm | - | 0 W/m² | - |
| 1778124683 | 18.33° C | 54% | 1009.3 hPa | 0 mm | - | 0 W/m² | - |
| 1778124382 | 18.89° C | 52% | 1009.2 hPa | 0 mm | - | 0 W/m² | - |
| 1778124082 | 18.89° C | 51% | 1009.1 hPa | 0 mm | - | 0 W/m² | - |
| 1778123783 | 19.44° C | 49% | 1009.1 hPa | 0 mm | - | 0 W/m² | - |
| 1778123482 | 19.44° C | 49% | 1009.2 hPa | 0 mm | - | 5 W/m² | - |
| 1778123182 | 20° C | 49% | 1009 hPa | 0 mm | - | 9 W/m² | - |
| 1778122882 | 20° C | 48% | 1009 hPa | 0 mm | - | 12 W/m² | - |
| 1778122582 | 20° C | 48% | 1009 hPa | 0 mm | - | 18 W/m² | - |
| 1778122282 | 20.56° C | 48% | 1009.1 hPa | 0 mm | - | 26 W/m² | - |
* Rain latest hour (hover to see other rain measurements)
** Current wind speed in m/s (hover to see current wind gust speed)